Regional Weather Roundup
Issued by NWS

Home | Current Version | Previous Version | Graphics & Text | Print | Product List | Glossary On
Versions: 1 2 3 4 5 6 7 8 9 10 11 12 13 14 15 16 17 18 19 20 21 22 23 24 25 26 27 28 29 30 31 32 33 34 35 36 37 38 39 40 41 42 43 44 45 46 47 48 49 50
130
ASUS43 KTOP 252208
RWRKS

WEATHER ROUNDUP FOR KANSAS
NATIONAL WEATHER SERVICE GOODLAND KS
500 PM CDT THU MAY 25 2017

NOTE:  "FAIR" INDICATES FEW OR NO CLOUDS BELOW 12,000 FEET WITH NO
SIGNIFICANT WEATHER AND/OR OBSTRUCTIONS TO VISIBILITY.

KSZ001>006-013>018-027>032-041>047-252300-
NORTHWEST KANSAS

CITY           SKY/WX    TMP DP  RH WIND       PRES   REMARKS
GOODLAND       CLOUDY    75  51  43 NE16      29.46F
HAYS           SUNNY     80  58  46 S13       29.47S
HILL CITY      SUNNY     86  58  38 S13       29.46S
RUSSELL        SUNNY     79  57  46 S17G26    29.46F
$$

KSZ061>065-074>080-084>089-252300-
SOUTHWEST KANSAS

CITY           SKY/WX    TMP DP  RH WIND       PRES   REMARKS
DODGE CITY     SUNNY     85  55  35 S15       29.47F
ELKHART          N/A     90  39  16 W14         N/A
GARDEN CITY    SUNNY     90  46  21 S12G22    29.45F
GREAT BEND     SUNNY     80  59  48 S17G26    29.46F
LIBERAL        SUNNY     92  54  27 S15G22    29.46F
PRATT          SUNNY     80  55  42 S20G25    29.48F
$$

KSZ066>073-081>083-090>101-252300-
SOUTHEAST KANSAS

CITY           SKY/WX    TMP DP  RH WIND       PRES   REMARKS
CHANUTE        SUNNY     79  57  46 SE20G29   29.57F
COFFEYVILLE    SUNNY     80  60  50 S15       29.57F
HUTCHINSON     SUNNY     83  57  41 S22G30    29.48F
MEDICINE LODGE   N/A     85  57  38 S20G26    29.45F
NEWTON         CLOUDY    80  58  46 S21G26    29.52F
PARSONS        SUNNY     80  56  43 SE12G18   29.59F
WICHITA INTL   CLOUDY    82  58  43 S21       29.50F
WICHITA JABRA  CLOUDY    80  58  46 S18G24    29.51F
WICHITA MCCONL CLOUDY    81  57  42 S20       29.52S
WINFIELD       SUNNY     80  59  48 S21G29    29.53F
$$

KSZ007>012-019>026-033>040-048>060-102>105-252300-
NORTHEAST KANSAS

CITY           SKY/WX    TMP DP  RH WIND       PRES   REMARKS
CONCORDIA      SUNNY     76  58  53 S16G24    29.50S
EMPORIA        CLOUDY    76  56  49 SE16G26   29.55S
LAWRENCE       MOSUNNY   78  55  44 SE20      29.57F
MANHATTAN      SUNNY     79  56  45 SE16G25   29.51F
MARYSVILLE     SUNNY     77  55  47 S16G26    29.51F
OLATHE IND     SUNNY     75  53  46 SE16      29.59F
OLATHE EXE     SUNNY     74  54  49 S20       29.60F
SALINA         SUNNY     81  56  42 S18G25    29.49F
TOPEKA BILLARD MOSUNNY   78  56  46 SE21G28   29.55F
TOPEKA FORBES  MOSUNNY   79  55  43 SE17G26   29.55F
$$




USA.gov is the U.S. government's official web portal to all federal, state and local government web resources and services.